Location: Newark
(45.9456°N, 15.4064°E)
Time: 07:26:03
(UTC+00:00)

Courier 1B Rocket - Pass Details

Date: 18 January 2020
Orbit: 920 x 1202 km, 28.2° (Epoch: 20 February)

Event Time Altitude Azimuth Distance (km) Brightness Sun altitude
Rises 14:13:42 0° 226° (SW) 3,627 10.2 11.4°
Reaches altitude 10° 14:17:47 10° 202° (SSW) 2,640 8.8 10.9°
Maximum altitude 14:20:49 14° 173° (S) 2,350 7.7 10.5°
Drops below altitude 10° 14:23:49 10° 144° (SE) 2,606 7.4 10.2°
Sets 14:27:48 0° 119° (ESE) 3,546 7.8 9.7°
